Weather History for KLWV - January, 2013

Change the Weather History Date:

Monday, January 28, 2013

  Actual Average Record
Temperature  
Mean Temperature 50 °F 32 °F  
Max Temperature 56 °F 40 °F 64 °F (1998)
Min Temperature 44 °F 23 °F 1 °F (2014)
Degree Days  
Heating Degree Days 15 33  
Month to date heating degree days 963 950  
Since 1 July heating degree days 2785 2749  
Cooling Degree Days 0 0  
Month to date cooling degree days 0 0  
Year to date cooling degree days 0 0  
Moisture  
Dew Point 49 °F    
Average Humidity 85    
Maximum Humidity 96    
Minimum Humidity 74    
Precipitation  
Precipitation 0.27 in 0.06 in 1.08 in (1969)
Month to date precipitation 4.79 2.18  
Year to date precipitation 4.79 2.18  
Sea Level Pressure  
Sea Level Pressure 30.03 in    
Wind  
Wind Speed 14 mph (South)    
Max Wind Speed 22 mph    
Max Gust Speed 28 mph    
Visibility 3 miles    
Events Rain    
T = Trace of Precipitation, MM = Missing Value Source: NWS Daily Summary

Daily Weather History Graph

Daily Weather History Graph

Search for Another Location

Airport or City:

Trip Planner

Search our weather history database for the weather conditions in past years. The results will help you decide how hot, cold, wet, or windy it might be!

Date:

Astronomy

Jan. 28, 2013 Rise Set
Actual Time 6:59 AM CST 5:07 PM CST
Civil Twilight 6:31 AM CST 5:36 PM CST
Nautical Twilight 5:59 AM CST 6:08 PM CST
Astronomical Twilight 5:27 AM CST 6:39 PM CST
Moon 7:00 PM CST (1/28) 7:26 AM CST (1/28)
Length of Visible Light 11h 04m
Length of Day
10h 08m
Full, 98% of the Moon is Illuminated
Jan 28
Full
Feb 3
Last Quarter
Feb 10
New
Feb 17
First Quarter
Feb 25
Full

Hourly Weather History & Observations

Time (CST) Temp. Windchill Dew Point Humidity Pressure Visibility Wind Dir Wind Speed Gust Speed Precip Events Conditions
12:53 AM 46.0 °F 39.6 °F 42.1 °F 86% 30.09 in 5.0 mi South 15.0 mph - 0.01 in   Overcast
1:53 AM 45.0 °F 38.2 °F 42.1 °F 90% 30.08 in 5.0 mi South 15.0 mph - 0.00 in   Overcast
2:53 AM 46.9 °F - 42.1 °F 83% 30.06 in 6.0 mi South 17.3 mph - N/A   Haze
3:53 AM 46.9 °F - 43.0 °F 86% 30.04 in 7.0 mi South 21.9 mph - N/A   Mostly Cloudy
4:53 AM 48.0 °F - 43.0 °F 83% 30.03 in 8.0 mi South 19.6 mph 27.6 mph 0.00 in Rain Light Rain
5:53 AM 48.0 °F - 42.1 °F 80% 30.03 in 8.0 mi South 18.4 mph - 0.01 in   Overcast
6:18 AM 48.2 °F - 42.8 °F 82% 30.03 in 8.0 mi South 16.1 mph - N/A   Overcast
6:53 AM 50.0 °F - 43.0 °F 77% 30.05 in 9.0 mi South 18.4 mph - N/A   Overcast
7:53 AM 50.0 °F - 44.1 °F 80% 30.05 in 7.0 mi South 13.8 mph - N/A   Overcast
8:53 AM 51.1 °F - 45.0 °F 80% 30.05 in 7.0 mi South 16.1 mph - N/A   Overcast
9:09 AM 51.8 °F - 46.4 °F 82% 30.04 in 6.0 mi South 17.3 mph - N/A   Haze
9:35 AM 51.8 °F - 48.2 °F 88% 30.06 in 1.8 mi SSW 20.7 mph - 0.04 in Rain Heavy Rain
9:53 AM 51.1 °F - 48.0 °F 89% 30.07 in 2.0 mi South 11.5 mph - 0.12 in Rain Light Rain
10:01 AM 51.8 °F - 48.2 °F 88% 30.07 in 4.0 mi SSW 12.7 mph - 0.00 in Rain Light Rain
10:18 AM 51.8 °F - 48.2 °F 88% 30.07 in 4.0 mi SSW 11.5 mph - 0.00 in Rain Light Rain
10:42 AM 51.8 °F - 48.2 °F 88% 30.07 in 1.8 mi SSW 10.4 mph - 0.01 in Rain Light Rain
10:50 AM 51.8 °F - 50.0 °F 94% 30.07 in 3.0 mi SSW 9.2 mph - 0.01 in Rain Light Rain
10:51 AM 52.0 °F - 50.0 °F 93% 30.08 in 3.0 mi SSW 9.2 mph - 0.01 in Rain Light Rain
11:03 AM 53.6 °F - 50.0 °F 88% 30.07 in 2.5 mi SSW 11.5 mph - 0.01 in Rain Light Rain
11:10 AM 53.6 °F - 50.0 °F 88% 30.07 in 3.0 mi South 10.4 mph - 0.01 in Rain Light Rain
11:22 AM 51.8 °F - 50.0 °F 94% 30.06 in 2.0 mi South 9.2 mph - 0.01 in Rain Light Rain
11:30 AM 51.8 °F - 50.0 °F 94% 30.06 in 1.5 mi South 10.4 mph - 0.01 in Rain Light Rain
11:42 AM 51.8 °F - 50.0 °F 94% 30.05 in 2.0 mi South 10.4 mph - 0.01 in   Overcast
11:53 AM 52.0 °F - 50.0 °F 93% 30.05 in 2.0 mi South 10.4 mph - 0.01 in   Overcast
12:53 PM 54.0 °F - 51.1 °F 90% 30.01 in 2.0 mi South 12.7 mph - N/A   Overcast
1:27 PM 53.6 °F - 51.8 °F 94% 30.01 in 1.8 mi SSW 13.8 mph - N/A   Overcast
1:53 PM 54.0 °F - 52.0 °F 93% 30.01 in 0.8 mi South 15.0 mph - 0.07 in Rain Heavy Rain
2:04 PM 53.6 °F - 51.8 °F 94% 30.00 in 1.8 mi South 12.7 mph - 0.01 in Rain Light Rain
2:11 PM 53.6 °F - 51.8 °F 94% 30.00 in 2.0 mi South 12.7 mph - 0.01 in Rain Light Rain
2:20 PM 53.6 °F - 51.8 °F 94% 30.00 in 1.0 mi South 11.5 mph - 0.04 in Rain Rain
2:53 PM 53.1 °F - 52.0 °F 96% 30.01 in 0.8 mi South 11.5 mph - 0.04 in   Overcast
3:15 PM 53.6 °F - 51.8 °F 94% 30.01 in 0.8 mi South 10.4 mph - N/A   Overcast
3:53 PM 53.1 °F - 52.0 °F 96% 30.01 in 0.8 mi South 8.1 mph - N/A   Overcast
4:31 PM 53.6 °F - 53.6 °F 100% 30.00 in 1.0 mi South 6.9 mph - N/A   Overcast
4:53 PM 55.9 °F - 54.0 °F 93% 30.01 in 1.5 mi South 9.2 mph - N/A   Overcast
5:03 PM 55.4 °F - 53.6 °F 94% 30.01 in 2.0 mi South 11.5 mph - N/A   Overcast
5:53 PM 55.9 °F - 54.0 °F 93% 30.01 in 2.5 mi South 13.8 mph - N/A   Overcast
6:53 PM 55.0 °F - 53.1 °F 93% 30.01 in 2.0 mi South 9.2 mph - N/A   Overcast
7:53 PM 55.0 °F - 53.1 °F 93% 30.01 in 2.0 mi South 10.4 mph - N/A   Overcast
8:36 PM 55.4 °F - 53.6 °F 94% 30.01 in 3.0 mi South 13.8 mph - N/A   Overcast
8:53 PM 55.9 °F - 54.0 °F 93% 30.01 in 3.0 mi South 12.7 mph - N/A   Overcast
9:53 PM 54.0 °F - 52.0 °F 93% 30.00 in 3.0 mi South 11.5 mph - N/A   Mostly Cloudy
10:53 PM 52.0 °F - 50.0 °F 93% 30.00 in 3.0 mi South 10.4 mph - N/A   Clear
11:53 PM 54.0 °F - 51.1 °F 90% 29.99 in 4.0 mi South 12.7 mph - N/A   Clear